Location: Barton Flats Campground
(34.1722°N, 116.8753°W)
Time: 20:24:02
(UTC+00:00)

Cosmos 1125 Rocket - Pass Details

Date: 08 August 2020
Orbit: 757 x 780 km, 74.0° (Epoch: 01 October)

Event Time Altitude Azimuth Distance (km) Brightness Sun altitude
Exits shadow 12:04:58 14° 220° (SW) 1,999 5.1 -12.0°
Maximum altitude 12:09:09 46° 291° (WNW) 1,015 3.9 -11.2°
Drops below altitude 10° 12:14:11 10° 4° (N) 2,311 6.4 -10.3°
Sets 12:16:41 0° 11° (N) 3,245 7.3 -9.8°
